Location: Newark
(47.5833°N, 8.1500°E)
Time: 16:54:20
(UTC+00:00)

Tiros 1 despin weight - Pass Details

Date: 03 November 2020
Orbit: 593 x 642 km, 48.2° (Epoch: 27 November)

Event Time Altitude Azimuth Distance (km) Brightness Sun altitude
Rises 01:46:52 0° 283° (WNW) 2,859 - -44.4°
Reaches altitude 10° 01:49:11 10° 281° (WNW) 1,948 - -44.0°
Maximum altitude 01:53:38 75° 197° (SSW) 621 - -43.4°
Drops below altitude 10° 01:58:02 10° 112° (ESE) 1,924 - -42.7°
Sets 02:00:19 0° 111° (ESE) 2,822 - -42.4°
